Content
SEND FEEDBACK

Daily
Averages
Monthly
Summary
United States of America

LEXINGTON, NEBRASKA


Home > North America > United States > Nebraska
Elevation: 2407 feet     Latitude: 40 47N     Longitude: 099 46W

WEATHER
 
SELECT A DAY
Number of Records: 443,267;   Date Range: 10/21/96 - 9/30/14
 
SHARE

PRINT THIS DATA

[ ← Previous Day ]
WEATHER ALMANAC - JANUARY 31, 2013
[ Next Day → ]
[ °C ]   °F
Weather ElementAverageHighLow
Temperature18.6 °F22.8 °F (5:55 am)12.9 °F (6:35 pm)
Dewpoint7.2 °F18.5 °F (6:15 am)-1.7 °F (2:55 pm)
Humidity62.8 %86 % (1:15 am)38 % (2:15 pm)
Barometer30.14 in30.29 in (8:55 pm)29.88 in (12:35 am)
Wind Speed10.8 mph26.5 mph (8:55 am)
Wind Gust36.8 mph (9:35 am)
Weather ElementAverage
Visibility9.9 mi
Wind DirectionWSW (248.3 °)

Weather ElementTotal
Precipitation---
Heating Degree Days47.2 (Base 65)
Averaged from 66 records on January 31, 2013
WEATHER CONDITIONS BREAKOUT
WIND DIRECTION BREAKOUT
WEATHER BY HOUR - JANUARY 31, 2013
[ °C ]   °F
Local TimeTemperatureDewpointHumidityBarometerVisibilityWind DirectionWind SpeedGust SpeedPrecipitationEventsConditions
12:35 AM18.1 °F14.0 °F84 %29.88 in10.0 miNNE (30°)5.8 mphScattered Clouds
12:55 AM17.6 °F13.1 °F83 %29.88 in10.0 miCalmScattered Clouds
1:15 AM16.0 °F12.6 °F86 %29.88 in10.0 miWest (270°)3.5 mphScattered Clouds
1:35 AM18.5 °F14.9 °F86 %29.89 in10.0 miWNW (300°)5.8 mphMostly Cloudy
1:55 AM19.4 °F15.4 °F85 %29.89 in10.0 miNorth (350°)4.6 mphOvercast
2:15 AM20.1 °F15.8 °F83 %29.90 in10.0 miNNW (330°)5.8 mphOvercast
2:35 AM20.3 °F15.8 °F83 %29.91 in10.0 miNW (310°)4.6 mphOvercast
2:55 AM20.8 °F16.3 °F83 %29.91 in10.0 miWest (280°)5.8 mphOvercast
3:15 AM21.2 °F16.7 °F83 %29.92 in10.0 miNW (320°)5.8 mphOvercast
3:35 AM21.2 °F16.5 °F82 %29.92 in10.0 miNNW (340°)4.6 mphOvercast
3:55 AM21.2 °F17.2 °F85 %29.93 in10.0 miNorth (350°)3.5 mphOvercast
4:15 AM21.7 °F17.2 °F83 %29.93 in10.0 miCalmMostly Cloudy
4:35 AM21.2 °F16.9 °F83 %29.95 in10.0 miWest (270°)4.6 mphOvercast
4:55 AM22.1 °F18.1 °F85 %29.96 in10.0 miNW (310°)4.6 mphOvercast
5:15 AM22.6 °F17.6 °F81 %29.97 in10.0 miNW (310°)4.6 mphOvercast
5:35 AM22.5 °F17.6 °F82 %29.97 in10.0 miNNW (330°)3.5 mphOvercast
5:55 AM22.8 °F18.0 °F82 %29.97 in10.0 miNNW (330°)9.2 mphMostly Cloudy
6:15 AM22.8 °F18.5 °F83 %29.98 in7.0 miNNW (330°)11.5 mphOvercast
6:55 AM22.6 °F18.1 °F83 %30.00 in4.0 miNNW (340°)11.5 mph17.3 mphSnowLight Snow
7:15 AM22.5 °F16.7 °F79 %30.01 in10.0 miNNW (340°)10.4 mphOvercast
7:35 AM22.6 °F15.3 °F73 %30.04 in10.0 miNorth (350°)17.3 mph21.9 mphOvercast
7:55 AM22.1 °F12.9 °F68 %30.05 in10.0 miNNW (340°)20.7 mph29.9 mphOvercast
8:15 AM21.7 °F12.4 °F67 %30.06 in10.0 miNorth (350°)16.1 mph23.0 mphOvercast
8:35 AM21.2 °F11.3 °F66 %30.08 in10.0 miNorth (350°)20.7 mph28.8 mphOvercast
8:55 AM19.6 °F8.1 °F61 %30.11 in10.0 miNNW (330°)26.5 mph32.2 mphOvercast
9:15 AM19.0 °F7.3 °F60 %30.14 in10.0 miNNW (330°)23.0 mphOvercast
9:35 AM18.5 °F6.8 °F60 %30.15 in10.0 miNNW (330°)24.2 mph36.8 mphOvercast
9:55 AM18.9 °F7.2 °F60 %30.18 in10.0 miNNW (330°)20.7 mph27.6 mphOvercast
10:15 AM18.1 °F9.7 °F70 %30.19 in10.0 miNorth (10°)16.1 mphOvercast
10:35 AM17.2 °F9.1 °F71 %30.21 in10.0 miNNE (20°)12.7 mphOvercast
10:55 AM17.4 °F7.7 °F66 %30.23 in10.0 miNorth (350°)17.3 mphScattered Clouds
11:15 AM18.1 °F5.4 °F57 %30.24 in10.0 miNNW (330°)24.2 mph28.8 mphClear
11:35 AM19.0 °F3.4 °F51 %30.24 in10.0 miNNW (330°)21.9 mph31.1 mphScattered Clouds
11:55 AM19.2 °F2.7 °F49 %30.24 in10.0 miNW (320°)21.9 mph26.5 mphScattered Clouds
12:15 PM19.8 °F2.8 °F48 %30.24 in10.0 miNNW (340°)16.1 mph21.9 mphScattered Clouds
12:35 PM19.8 °F3.2 °F49 %30.24 in10.0 miNNW (330°)15.0 mph18.4 mphOvercast
12:55 PM19.4 °F0.5 °F44 %30.25 in10.0 miNNW (340°)17.3 mph25.3 mphOvercast
1:15 PM20.1 °F0.1 °F42 %30.25 in10.0 miNW (320°)17.3 mph28.8 mphScattered Clouds
1:35 PM21.0 °F0.7 °F41 %30.24 in10.0 miNW (310°)19.6 mph25.3 mphScattered Clouds
1:55 PM20.3 °F-1.5 °F39 %30.24 in10.0 miNW (320°)24.2 mph29.9 mphMostly Cloudy
2:15 PM21.0 °F-1.3 °F38 %30.24 in10.0 miNNW (330°)18.4 mph24.2 mphMostly Cloudy
2:35 PM20.7 °F-1.3 °F38 %30.24 in10.0 miNNW (330°)17.3 mph25.3 mphOvercast
2:55 PM19.4 °F-1.7 °F40 %30.24 in10.0 miNNW (340°)18.4 mphOvercast
3:15 PM19.4 °F-1.3 °F40 %30.24 in10.0 miNW (320°)18.4 mph25.3 mphOvercast
3:35 PM19.0 °F-1.3 °F41 %30.26 in10.0 miNW (310°)16.1 mph19.6 mphOvercast
3:55 PM19.4 °F0.1 °F43 %30.25 in10.0 miWNW (300°)16.1 mphOvercast
4:15 PM18.9 °F-1.1 °F42 %30.26 in10.0 miNNW (340°)13.8 mphOvercast
4:35 PM18.1 °F-0.6 °F44 %30.25 in10.0 miNorth (360°)12.7 mphMostly Cloudy
4:55 PM17.6 °F0.1 °F46 %30.26 in10.0 miNNW (340°)11.5 mphScattered Clouds
5:15 PM17.6 °F0.5 °F47 %30.25 in10.0 miNNW (340°)10.4 mphMostly Cloudy
5:35 PM17.1 °F-0.2 °F47 %30.25 in10.0 miNNW (340°)9.2 mphMostly Cloudy
6:15 PM14.9 °F0.5 °F53 %30.26 in10.0 miNNW (340°)5.8 mphScattered Clouds
6:35 PM12.9 °F0.5 °F58 %30.25 in10.0 miNorth (10°)5.8 mphClear
7:15 PM13.3 °F1.6 °F60 %30.26 in10.0 miCalmMostly Cloudy
7:35 PM13.8 °F0.9 °F56 %30.27 in10.0 miCalmMostly Cloudy
7:55 PM13.5 °F1.6 °F59 %30.27 in10.0 miCalmMostly Cloudy
8:15 PM13.8 °F2.5 °F61 %30.28 in10.0 miCalmOvercast
8:35 PM14.5 °F0.3 °F53 %30.28 in10.0 miENE (60°)3.5 mphOvercast
8:55 PM14.5 °F2.1 °F58 %30.29 in10.0 miCalmOvercast
9:15 PM14.7 °F1.2 °F55 %30.29 in10.0 miCalmOvercast
9:35 PM14.9 °F1.4 °F55 %30.29 in10.0 miESE (110°)4.6 mphOvercast
9:55 PM14.4 °F2.3 °F59 %30.29 in10.0 miSE (140°)5.8 mphOvercast
10:15 PM14.4 °F2.1 °F58 %30.29 in10.0 miSE (130°)4.6 mphOvercast
10:35 PM14.0 °F2.8 °F61 %30.29 in10.0 miSE (140°)5.8 mphOvercast
11:15 PM14.0 °F3.9 °F64 %30.27 in10.0 miSSE (160°)5.8 mphOvercast
11:35 PM14.0 °F4.3 °F65 %30.27 in10.0 miSouth (180°)5.8 mphOvercast
Hourly data recorded from KLXN, located miles away from Lexington, Nebraska







STORIES FROM OUR PARTNERS